Погода в Сошично

Украина / Волынская область     51°28′11″N   24°52′58″E
темп.,
°C
ветер,
м/с
пор.,
м/с
влажн.,
%
обл.,
%
осадки,
мм/ч
давл.,
гПа
погр.,
м
11 апреля, вс
вс1100:00+8ююз311725 0.0 1021224
03:00+6ю310775 0.0 1022207
06:00+5ю31080100 0.0 1023204
09:00+9ю41064100 0.0 1023320
12:00+15ююв5841100 0.0 10231037
15:00+16ююв683694 0.0 10231409
18:00+16ююв58385 0.0 10221279
21:00+11юв41253100 0.0 1023408
12 апреля, пн
пн1200:00+10ююв51452100 0.0 1024550
03:00+8юв51354100 0.0 1024408
06:00+7юв51355100 0.0 1023407
09:00+8ююв41054100 0.0 1022351
12:00+13ююв5744100 0.0 1021633
15:00+15ююв574528 0.0 1020813
18:00+16ююв4645100 0.0 10191128
21:00+12юв3862100 0.0 1020163
13 апреля, вт
вт1300:00+11ю2468100 0.0 101995
03:00+11ююз238185 0.0 101963
06:00+10ссз1285100 0.0 101943
09:00+10с2281100 0.0 1020166
12:00+12ссв237298 0.0 1020572
15:00+15с436486 0.0 10191108
18:00+11с687792 0.0 1019518
21:00+8с5108495 0.0 1019373
14 апреля, ср
ср1400:00+6с5118880 0.0 1018397
03:00+4с51090100 0.0 1017390
06:00+5с51185100 0.0 1016453
09:00+5с51088100 0.2 1016533
12:00+4ссз4993100 1.9 1015491
15:00+4ссз4894100 3.6 1015442
18:00+4ссз3595100 1.3 1015357
21:00+3ссз3596100 1.4 1015252
15 апреля, чт
чт1500:00+4сз2397100 0.0 1015141
03:00+4сз1298100 0.0 1015101
06:00+5с2399100 0.0 1015128
09:00+6ссв2597100 0.1 1015209
12:00+11св3482100 0.1 1016693
15:00+10ссв6784100 0.9 1016608
18:00+6с5993100 1.0 1017482
21:00+5с4995100 2.0 1018521